Search the data

BODC Cruise Metadata Report for RV Lowland Searcher cruise 0996H

Introduction

This report collates information from the BODC cruise inventory and oceanographic databases. It presents

Cruise Inventory Information

Long name RV Lowland Searcher cruise 0996H
Short name 0996H
Objectives and Narrative Validation of hydrocarbon models; sampling of larval fish, plankton, water and sediment. Cruise split into two parts
Ship RV Lowland Searcher
Departure Port Aberdeen, United Kingdom
Departure Date 1996-06-17
Arrival Port Aberdeen, United Kingdom
Arrival Date 1996-07-01
Principal Scientist(s) Ron Stagg (Scottish Office Agriculture Environment and Fisheries Department Aberdeen Marine Laboratory)
Responsible Organisation
Associated Project(s)
IHB Sea Areas Visited North Sea
Marsden Squares Visited 181;3/216;3/216;4/217;1/252;1
Work Area Description N North Sea, Moray Firth and Norwegian trench
Work Area Bounding Polygon 55N,5W; 65N,5W; 65N,10E; 55N,10E; 55N,5W
Southern Limit 55N
Northern Limit 65N
Western Limit 5W
Eastern Limit 10E

Cruise Inventory Datasets

Physical oceanography  
CTD stations Quantity: number of stations = 70
Description:  
Water bottle stations Quantity: number of stations = 37
Description: Salinity Calibration samples  
Contamination  
Contaminants in organisms Quantity: 37
Description:  
Petroleum residues Quantity: number of samples = 37
Description: 2x2.5litre hydrocarbon samples by GC-MS  
Biology and fisheries  
Eggs and larvae Quantity: 37
Description:  
Phytoplankton pigs (eg chlorophyll, fluorescence) Quantity: number of samples = 37
Description: Chlorophyll calibration samples  
Zooplankton Quantity: 37
Description:  

Cruise Inventory Mooring/Buoy Operations

No information on datasets is currently available

Summary of BODC Data Holdings for the Cruise

National Oceanographic Database

Summary

# Series Instrument Description Parameters
70 CTD/STD cast Chlorophyll pigment concentrations in water bodies
Electrical conductivity of the water column
Salinity of the water column
Temperature of the water column
Vertical spatial coordinates

Note: Parameter terms are taken from the BODC Parameter Discovery Vocabulary XML (SKOS)

Full List

BODC Reference Instrument Description Date/Time Location  
466377 CTD/STD cast 1996-06-18 08:21Z 58° 0' N, 2° 0' W Click for more
466389 CTD/STD cast 1996-06-18 17:01Z 58° 59' N, 2° 0' W Click for more
466390 CTD/STD cast 1996-06-18 20:34Z 59° 30' N, 2° 0' W Click for more
466408 CTD/STD cast 1996-06-19 01:10Z 60° 0' N, 2° 0' W Click for more
466421 CTD/STD cast 1996-06-19 06:06Z 60° 30' N, 2° 0' W Click for more
466433 CTD/STD cast 1996-06-19 10:20Z 61° 0' N, 1° 59' W Click for more
466445 CTD/STD cast 1996-06-19 17:42Z 61° 59' N, 2° 0' W Click for more
466457 CTD/STD cast 1996-06-20 01:43Z 62° 0' N, 0° 30' E Click for more
466469 CTD/STD cast 1996-06-20 18:18Z 61° 59' N, 3° 28' E Click for more
466470 CTD/STD cast 1996-06-21 01:53Z 61° 15' N, 4° 12' E Click for more
466482 CTD/STD cast 1996-06-21 04:09Z 61° 14' N, 4° 0' E Click for more
466494 CTD/STD cast 1996-06-21 07:19Z 61° 15' N, 3° 30' E Click for more
466501 CTD/STD cast 1996-06-21 11:38Z 61° 15' N, 2° 30' E Click for more
466513 CTD/STD cast 1996-06-21 15:41Z 61° 15' N, 1° 30' E Click for more
466525 CTD/STD cast 1996-06-21 20:05Z 61° 14' N, 0° 28' E Click for more
466537 CTD/STD cast 1996-06-21 23:32Z 60° 50' N, 0° 29' E Click for more
466549 CTD/STD cast 1996-06-22 04:24Z 60° 49' N, 1° 30' E Click for more
466550 CTD/STD cast 1996-06-22 08:29Z 60° 49' N, 2° 30' E Click for more
466562 CTD/STD cast 1996-06-22 12:22Z 60° 49' N, 3° 30' E Click for more
466574 CTD/STD cast 1996-06-22 14:43Z 60° 50' N, 4° 0' E Click for more
466586 CTD/STD cast 1996-06-22 20:27Z 60° 30' N, 4° 31' E Click for more
466598 CTD/STD cast 1996-06-23 00:19Z 60° 30' N, 3° 30' E Click for more
466605 CTD/STD cast 1996-06-23 04:21Z 60° 30' N, 2° 29' E Click for more
466617 CTD/STD cast 1996-06-23 07:59Z 60° 30' N, 1° 31' E Click for more
466629 CTD/STD cast 1996-06-23 11:38Z 60° 30' N, 0° 31' E Click for more
466630 CTD/STD cast 1996-06-23 17:02Z 59° 45' N, 0° 30' E Click for more
466642 CTD/STD cast 1996-06-23 21:07Z 59° 44' N, 1° 30' E Click for more
466654 CTD/STD cast 1996-06-24 01:34Z 59° 45' N, 2° 29' E Click for more
466666 CTD/STD cast 1996-06-24 05:35Z 59° 44' N, 3° 30' E Click for more
466678 CTD/STD cast 1996-06-24 11:09Z 59° 45' N, 4° 31' E Click for more
466691 CTD/STD cast 1996-06-24 17:13Z 58° 59' N, 5° 1' E Click for more
466709 CTD/STD cast 1996-06-25 01:02Z 59° 0' N, 3° 30' E Click for more
466710 CTD/STD cast 1996-06-25 05:24Z 59° 0' N, 2° 30' E Click for more
466722 CTD/STD cast 1996-06-25 20:38Z 58° 28' N, 2° 32' E Click for more
466734 CTD/STD cast 1996-06-26 00:35Z 58° 30' N, 1° 30' E Click for more
466746 CTD/STD cast 1996-06-26 04:16Z 59° 0' N, 1° 30' E Click for more
466758 CTD/STD cast 1996-06-26 08:10Z 59° 0' N, 0° 30' E Click for more
466771 CTD/STD cast 1996-06-26 22:21Z 60° 30' N, 0° 0' W Click for more
466783 CTD/STD cast 1996-06-27 00:55Z 60° 49' N, 0° 15' E Click for more
466795 CTD/STD cast 1996-06-27 03:56Z 61° 15' N, 0° 30' E Click for more
466802 CTD/STD cast 1996-06-27 07:16Z 61° 15' N, 1° 29' E Click for more
466814 CTD/STD cast 1996-06-27 10:30Z 61° 15' N, 2° 30' E Click for more
466826 CTD/STD cast 1996-06-27 13:36Z 61° 15' N, 3° 30' E Click for more
466838 CTD/STD cast 1996-06-27 15:31Z 61° 15' N, 4° 0' E Click for more
466851 CTD/STD cast 1996-06-27 17:09Z 61° 15' N, 4° 12' E Click for more
466863 CTD/STD cast 1996-06-27 20:12Z 60° 49' N, 4° 0' E Click for more
466875 CTD/STD cast 1996-06-27 22:09Z 60° 49' N, 3° 30' E Click for more
466887 CTD/STD cast 1996-06-28 01:28Z 60° 49' N, 2° 30' E Click for more
466899 CTD/STD cast 1996-06-28 04:44Z 60° 49' N, 1° 30' E Click for more
466906 CTD/STD cast 1996-06-28 07:50Z 60° 49' N, 0° 30' E Click for more
466918 CTD/STD cast 1996-06-28 10:04Z 60° 30' N, 0° 30' E Click for more
466931 CTD/STD cast 1996-06-28 13:32Z 60° 30' N, 1° 30' E Click for more
466943 CTD/STD cast 1996-06-28 17:01Z 60° 30' N, 2° 30' E Click for more
466955 CTD/STD cast 1996-06-28 20:20Z 60° 30' N, 3° 30' E Click for more
466967 CTD/STD cast 1996-06-28 23:23Z 60° 30' N, 4° 30' E Click for more
466979 CTD/STD cast 1996-06-29 04:09Z 59° 45' N, 4° 30' E Click for more
466980 CTD/STD cast 1996-06-29 07:35Z 59° 45' N, 3° 30' E Click for more
466992 CTD/STD cast 1996-06-29 10:45Z 59° 45' N, 2° 30' E Click for more
467006 CTD/STD cast 1996-06-29 13:35Z 59° 45' N, 1° 30' E Click for more
467018 CTD/STD cast 1996-06-29 16:35Z 59° 45' N, 0° 30' E Click for more
467031 CTD/STD cast 1996-06-29 21:02Z 59° 0' N, 0° 29' E Click for more
467043 CTD/STD cast 1996-06-30 00:14Z 59° 0' N, 1° 30' E Click for more
467055 CTD/STD cast 1996-06-30 03:23Z 59° 0' N, 2° 30' E Click for more
467067 CTD/STD cast 1996-06-30 06:37Z 59° 0' N, 3° 30' E Click for more
467079 CTD/STD cast 1996-06-30 09:45Z 58° 30' N, 3° 29' E Click for more
467080 CTD/STD cast 1996-06-30 12:55Z 58° 30' N, 2° 30' E Click for more
467092 CTD/STD cast 1996-06-30 16:06Z 58° 30' N, 1° 30' E Click for more
467111 CTD/STD cast 1996-06-30 19:15Z 58° 30' N, 0° 30' E Click for more
467123 CTD/STD cast 1996-06-30 22:11Z 58° 0' N, 0° 30' E Click for more
467135 CTD/STD cast 1996-07-01 01:27Z 57° 30' N, 0° 30' E Click for more

Project Database

No data currently held for this cruise in the BODC Project Database

References

Track Charts

Track Chart

Track Chart

Reports

Cruise Report